Regional Weather Roundup
Issued by NWS Binghamton, NY

Home | Current Version | Previous Version | Text Only | Print | Product List | Glossary On
Versions: 1 2 3 4 5 6 7 8 9 10 11 12 13 14 15 16 17 18 19 20 21 22 23 24 25 26 27 28 29 30 31 32 33 34 35 36 37 38 39 40 41 42 43 44 45 46 47 48 49 50
000
ASUS41 KBGM 241410
RWRBGM

REGIONAL WEATHER ROUNDUP
NATIONAL WEATHER SERVICE BINGHAMTON NY
1000 AM EDT SAT JUN 24 2017

Note: "fair" indicates few or no clouds below 12,000 feet with no
significant weather and/or obstructions to visibility.

* = Station(s) that does not report precipitation, such as rain,
snow, etc, also no thunder or fog.

NYZ009-015>018-022>025-036-037-044>046-055>057-062-241500
...Central New York...

CITY           SKY/WX    TMP DP  RH WIND       PRES   REMARKS
Binghamton     SUNNY     70  54  56 NW13G20   29.74R
Cortland       FAIR      70  55  60 NW12      29.74R
Dansville      SUNNY     74  56  53 W8        29.75R
Elmira         SUNNY     73  57  56 NW8       29.74R
Seneca Falls   SUNNY     73  57  56 NW10G17   29.73R
Ithaca         NOT AVBL
Hamilton       SUNNY     70  55  60 NW8G17    29.72R
Hornell        SUNNY     72  55  56 W17       29.81R
Monticello     SUNNY     72  61  68 NW14      29.72R
Norwich        SUNNY     72  55  56 NW7       29.72R
Oneonta        SUNNY     66 N/A N/A N5        29.73R
Penn Yan       SUNNY     72  54  53 W6        29.75R
Rome           PTSUNNY   69  62  78 W13G20    29.68R
Sidney         MOSUNNY   72  61  68 NW8       29.72R
Syracuse       MOSUNNY   71  58  63 W13       29.69R
$$

PAZ038>040-043-044-047-048-072-241500
...Northeast Pennsylvania...

CITY           SKY/WX    TMP DP  RH WIND       PRES   REMARKS
Hazleton         N/A     73  64  73 NW5       29.80R
Scranton       SUNNY     73  60  63 NW9       29.74R
$$
&&
KEY
WCI = Wind Chill Index
VSB = Visibility
HX  = Heat Index
$$



USA.gov is the U.S. government's official web portal to all federal, state and local government web resources and services.